EWG73C LGTS-EDDK

Flight info

Callsign EWG73C
Flight time 2h 20m
Altitude FL380
Route EDAS1C EDASI N146 BEKVA MAVAR NEMEK GIMIX ERKIR VEKIR UMDAS T844 ASKIK T840 GULKO GULK1K
Aircraft A20N

Departure

Time 2026-04-22 10:32
Airport Thessaloniki Macedonia International Airport (LGTS)

Arrival

Time 2026-04-22 12:52
Airport Cologne Bonn Airport (EDDK)
Time Latitude Longitude Altitude Speed Heading
2026-04-22 10:12 40.52341 22.97525 9 ft 0 kts 44°
2026-04-22 10:23 40.52334 22.97517 9 ft 2 kts 44°
2026-04-22 10:24 40.52323 22.97502 9 ft 2 kts 45°
2026-04-22 10:24 40.52312 22.97488 9 ft 2 kts 61°
2026-04-22 10:24 40.52309 22.97470 9 ft 2 kts 93°
2026-04-22 10:24 40.52313 22.97451 9 ft 2 kts 124°
2026-04-22 10:25 40.52318 22.97443 9 ft 1 kts 140°
2026-04-22 10:25 40.52321 22.97440 9 ft 0 kts 136°
2026-04-22 10:27 40.52317 22.97445 9 ft 1 kts 135°
2026-04-22 10:27 40.52307 22.97459 9 ft 3 kts 135°
2026-04-22 10:27 40.52289 22.97482 9 ft 4 kts 135°
2026-04-22 10:28 40.52265 22.97513 9 ft 5 kts 135°
2026-04-22 10:28 40.52235 22.97553 9 ft 7 kts 135°
2026-04-22 10:28 40.52198 22.97600 9 ft 8 kts 141°
2026-04-22 10:28 40.52140 22.97654 9 ft 14 kts 144°
2026-04-22 10:29 40.52052 22.97769 11 ft 18 kts 133°
2026-04-22 10:29 40.51986 22.97906 12 ft 18 kts 108°
2026-04-22 10:29 40.51951 22.98121 12 ft 29 kts 101°
2026-04-22 10:29 40.51899 22.98363 16 ft 26 kts 103°
2026-04-22 10:30 40.51856 22.98590 16 ft 25 kts 104°
2026-04-22 10:30 40.51802 22.98697 17 ft 8 kts 178°
2026-04-22 10:30 40.51748 22.98686 18 ft 7 kts 190°
2026-04-22 10:30 40.51695 22.98671 18 ft 7 kts 201°
2026-04-22 10:31 40.51687 22.98592 17 ft 23 kts 287°
2026-04-22 10:31 40.51798 22.98014 13 ft 100 kts 284°
2026-04-22 10:31 40.52022 22.96812 10 ft 160 kts 285°
2026-04-22 10:31 40.52331 22.95269 498 ft 169 kts 287°
2026-04-22 10:32 40.52669 22.93727 1166 ft 172 kts 287°
2026-04-22 10:32 40.53012 22.92097 1700 ft 187 kts 287°
2026-04-22 10:32 40.53382 22.90305 2189 ft 205 kts 287°
2026-04-22 10:32 40.53785 22.88327 2687 ft 225 kts 286°
2026-04-22 10:33 40.54228 22.86139 3152 ft 248 kts 286°
2026-04-22 10:33 40.54706 22.83767 3807 ft 264 kts 286°
2026-04-22 10:33 40.55130 22.81313 4735 ft 268 kts 275°
2026-04-22 10:33 40.54781 22.78834 5653 ft 272 kts 242°
2026-04-22 10:34 40.53500 22.76926 6590 ft 274 kts 217°
2026-04-22 10:34 40.51914 22.75405 7497 ft 277 kts 217°
2026-04-22 10:34 40.50314 22.73873 8371 ft 280 kts 220°
2026-04-22 10:34 40.49016 22.71881 9271 ft 279 kts 245°
2026-04-22 10:35 40.48473 22.69375 10226 ft 277 kts 262°
2026-04-22 10:35 40.48220 22.66755 10919 ft 285 kts 264°
2026-04-22 10:35 40.47987 22.64010 11309 ft 304 kts 264°
2026-04-22 10:35 40.47720 22.61099 11666 ft 322 kts 264°
2026-04-22 10:36 40.47415 22.58028 11996 ft 339 kts 264°
2026-04-22 10:36 40.47084 22.54857 12575 ft 347 kts 263°
2026-04-22 10:36 40.46754 22.51767 13362 ft 347 kts 263°
2026-04-22 10:36 40.46430 22.48765 14106 ft 348 kts 263°
2026-04-22 10:37 40.46199 22.45552 14821 ft 349 kts 273°
2026-04-22 10:37 40.47910 22.39585 16080 ft 360 kts 306°
2026-04-22 10:37 40.49554 22.37041 16719 ft 363 kts 308°
2026-04-22 10:38 40.51221 22.34525 17352 ft 365 kts 307°
2026-04-22 10:38 40.52956 22.31890 18024 ft 367 kts 307°
2026-04-22 10:38 40.54646 22.29314 18656 ft 368 kts 307°
2026-04-22 10:38 40.56380 22.26666 19244 ft 371 kts 307°
2026-04-22 10:39 40.58133 22.23986 19817 ft 374 kts 307°
2026-04-22 10:39 40.59898 22.21288 20374 ft 377 kts 306°
2026-04-22 10:39 40.61678 22.18565 20925 ft 379 kts 306°
2026-04-22 10:39 40.63460 22.15836 21457 ft 382 kts 306°
2026-04-22 10:40 40.65269 22.13063 21979 ft 384 kts 306°
2026-04-22 10:40 40.67078 22.10288 22475 ft 387 kts 306°
2026-04-22 10:40 40.68895 22.07498 22952 ft 390 kts 306°
2026-04-22 10:40 40.70723 22.04690 23437 ft 392 kts 306°
2026-04-22 10:41 40.72562 22.01862 23892 ft 394 kts 306°
2026-04-22 10:41 40.74419 21.99003 24335 ft 396 kts 306°
2026-04-22 10:41 40.76285 21.96128 24787 ft 398 kts 306°
2026-04-22 10:41 40.78171 21.93215 25194 ft 400 kts 306°
2026-04-22 10:42 40.80038 21.90333 25635 ft 401 kts 306°
2026-04-22 10:42 40.81924 21.87417 26022 ft 402 kts 306°
2026-04-22 10:42 40.83817 21.84488 26389 ft 404 kts 306°
2026-04-22 10:42 40.85701 21.81569 26743 ft 405 kts 306°
2026-04-22 10:43 40.87595 21.78633 27043 ft 407 kts 306°
2026-04-22 10:43 40.89493 21.75687 27351 ft 408 kts 306°
2026-04-22 10:43 40.91403 21.72722 27779 ft 407 kts 306°
2026-04-22 10:43 40.93293 21.69789 28248 ft 404 kts 306°
2026-04-22 10:44 40.95180 21.66860 28692 ft 402 kts 306°
2026-04-22 10:44 40.97031 21.63986 29165 ft 398 kts 306°
2026-04-22 10:44 40.98878 21.61117 29639 ft 395 kts 306°
2026-04-22 10:44 41.00679 21.58313 30051 ft 393 kts 305°
2026-04-22 10:45 41.02497 21.55477 30423 ft 392 kts 305°
2026-04-22 10:45 41.04324 21.52624 30771 ft 391 kts 305°
2026-04-22 10:45 41.06113 21.49828 31123 ft 390 kts 305°
2026-04-22 10:45 41.07867 21.47083 31458 ft 389 kts 305°
2026-04-22 10:46 41.09642 21.44301 31782 ft 389 kts 305°
2026-04-22 10:46 41.11397 21.41559 32095 ft 388 kts 305°
2026-04-22 10:46 41.13153 21.38829 32371 ft 388 kts 305°
2026-04-22 10:46 41.14904 21.36098 32635 ft 388 kts 305°
2026-04-22 10:47 41.16685 21.33307 32920 ft 388 kts 304°
2026-04-22 10:47 41.18435 21.30549 33224 ft 387 kts 304°
2026-04-22 10:47 41.20210 21.27751 33494 ft 387 kts 304°
2026-04-22 10:47 41.21969 21.24973 33743 ft 387 kts 304°
2026-04-22 10:48 41.23726 21.22197 34014 ft 387 kts 304°
2026-04-22 10:48 41.25460 21.19457 34284 ft 386 kts 304°
2026-04-22 10:48 41.27217 21.16676 34499 ft 386 kts 304°
2026-04-22 10:48 41.28970 21.13901 34686 ft 387 kts 304°
2026-04-22 10:49 41.30719 21.11128 34880 ft 388 kts 304°
2026-04-22 10:49 41.32474 21.08345 35069 ft 389 kts 304°
2026-04-22 10:49 41.34227 21.05562 35272 ft 389 kts 304°
2026-04-22 10:49 41.35979 21.02781 35456 ft 389 kts 304°
2026-04-22 10:50 41.37732 20.99995 35631 ft 390 kts 304°
2026-04-22 10:50 41.39472 20.97227 35790 ft 390 kts 304°
2026-04-22 10:50 41.41222 20.94439 35952 ft 391 kts 305°
2026-04-22 10:50 41.42991 20.91619 36112 ft 391 kts 305°
2026-04-22 10:51 41.44748 20.88813 36250 ft 392 kts 305°
2026-04-22 10:51 41.46511 20.85998 36367 ft 393 kts 305°
2026-04-22 10:51 41.48283 20.83164 36469 ft 394 kts 305°
2026-04-22 10:51 41.50054 20.80331 36588 ft 395 kts 305°
2026-04-22 10:52 41.51822 20.77499 36682 ft 396 kts 305°
2026-04-22 10:52 41.55471 20.71644 36866 ft 399 kts 305°
2026-04-22 10:53 41.59130 20.65758 37063 ft 400 kts 305°
2026-04-22 10:53 41.62800 20.59844 37243 ft 401 kts 305°
2026-04-22 10:54 41.66572 20.53972 37372 ft 405 kts 309°
2026-04-22 10:54 41.70743 20.48527 37512 ft 409 kts 312°
2026-04-22 10:55 41.75103 20.43190 37662 ft 410 kts 313°
2026-04-22 10:55 41.79459 20.37855 37796 ft 411 kts 313°
2026-04-22 10:56 41.83836 20.32472 37927 ft 412 kts 312°
2026-04-22 10:56 41.88161 20.27126 37994 ft 413 kts 312°
2026-04-22 10:57 41.92423 20.21862 37995 ft 413 kts 312°
2026-04-22 10:57 41.96697 20.16577 37996 ft 413 kts 312°
2026-04-22 10:58 42.00987 20.11266 37998 ft 413 kts 312°
2026-04-22 10:58 42.05285 20.05935 38000 ft 413 kts 312°
2026-04-22 10:59 42.09565 20.00618 38001 ft 413 kts 312°
2026-04-22 10:59 42.13885 19.95270 38002 ft 414 kts 312°
2026-04-22 11:00 42.18127 19.90011 38002 ft 412 kts 312°
2026-04-22 11:00 42.22342 19.84757 38004 ft 412 kts 312°
2026-04-22 11:01 42.26621 19.79406 38004 ft 412 kts 312°
2026-04-22 11:01 42.30861 19.74090 38005 ft 413 kts 312°
2026-04-22 11:02 42.35137 19.68716 38006 ft 416 kts 312°
2026-04-22 11:02 42.39409 19.63336 38009 ft 417 kts 312°
2026-04-22 11:03 42.43699 19.57924 38007 ft 416 kts 312°
2026-04-22 11:03 42.47970 19.52528 38005 ft 416 kts 313°
2026-04-22 11:04 42.52232 19.47129 38007 ft 417 kts 313°
2026-04-22 11:04 42.56542 19.41659 38009 ft 417 kts 313°
2026-04-22 11:05 42.60835 19.36201 38007 ft 417 kts 313°
2026-04-22 11:05 42.65103 19.30744 38009 ft 418 kts 312°
2026-04-22 11:06 42.69381 19.25260 38011 ft 419 kts 312°
2026-04-22 11:06 42.73668 19.19766 38009 ft 421 kts 312°
2026-04-22 11:07 42.77999 19.14213 38008 ft 421 kts 312°
2026-04-22 11:07 42.82351 19.08622 38007 ft 422 kts 312°
2026-04-22 11:08 42.86736 19.02979 38007 ft 422 kts 313°
2026-04-22 11:08 42.91069 18.97390 38007 ft 422 kts 313°
2026-04-22 11:09 42.95436 18.91748 38009 ft 422 kts 313°
2026-04-22 11:09 42.99814 18.86079 38010 ft 423 kts 313°
2026-04-22 11:10 43.04241 18.80335 38013 ft 423 kts 313°
2026-04-22 11:10 43.08647 18.74606 38016 ft 424 kts 313°
2026-04-22 11:11 43.13069 18.68865 38022 ft 424 kts 313°
2026-04-22 11:11 43.17495 18.63122 38026 ft 425 kts 313°
2026-04-22 11:12 43.21831 18.57464 38029 ft 425 kts 313°
2026-04-22 11:12 43.26229 18.51705 38035 ft 426 kts 313°
2026-04-22 11:13 43.30618 18.45939 38043 ft 427 kts 313°
2026-04-22 11:13 43.35021 18.40144 38038 ft 427 kts 313°
2026-04-22 11:14 43.39437 18.34317 38035 ft 427 kts 313°
2026-04-22 11:14 43.43840 18.28466 38033 ft 427 kts 313°
2026-04-22 11:15 43.48186 18.22690 38032 ft 428 kts 313°
2026-04-22 11:15 43.52627 18.16786 38033 ft 429 kts 313°
2026-04-22 11:16 43.57078 18.10860 38039 ft 429 kts 313°
2026-04-22 11:16 43.61502 18.04958 38043 ft 429 kts 313°
2026-04-22 11:17 43.65944 17.99021 38048 ft 429 kts 313°
2026-04-22 11:17 43.70345 17.93126 38052 ft 429 kts 313°
2026-04-22 11:18 43.74773 17.87182 38054 ft 429 kts 313°
2026-04-22 11:18 43.79162 17.81278 38056 ft 429 kts 313°
2026-04-22 11:19 43.83581 17.75321 38058 ft 429 kts 313°
2026-04-22 11:19 43.88002 17.69348 38053 ft 429 kts 313°
2026-04-22 11:20 43.92423 17.63362 38054 ft 429 kts 313°
2026-04-22 11:20 43.96844 17.57362 38059 ft 428 kts 313°
2026-04-22 11:21 44.01247 17.51371 38063 ft 428 kts 313°
2026-04-22 11:21 44.05654 17.45361 38073 ft 429 kts 313°
2026-04-22 11:22 44.10080 17.39316 38080 ft 429 kts 313°
2026-04-22 11:22 44.14500 17.33300 38090 ft 429 kts 313°
2026-04-22 11:23 44.18906 17.27254 38095 ft 430 kts 313°
2026-04-22 11:23 44.23310 17.21194 38103 ft 430 kts 313°
2026-04-22 11:24 44.27728 17.15105 38111 ft 430 kts 313°
2026-04-22 11:24 44.32123 17.09034 38120 ft 429 kts 313°
2026-04-22 11:25 44.36519 17.02947 38128 ft 430 kts 313°
2026-04-22 11:25 44.40928 16.96829 38133 ft 429 kts 313°
2026-04-22 11:26 44.45311 16.90735 38138 ft 429 kts 313°
2026-04-22 11:26 44.49689 16.84633 38144 ft 429 kts 313°
2026-04-22 11:27 44.54078 16.78502 38149 ft 428 kts 313°
2026-04-22 11:27 44.58444 16.72389 38152 ft 428 kts 313°
2026-04-22 11:28 44.62807 16.66267 38155 ft 429 kts 313°
2026-04-22 11:28 44.67175 16.60124 38158 ft 430 kts 313°
2026-04-22 11:29 44.71560 16.53944 38159 ft 430 kts 313°
2026-04-22 11:29 44.75915 16.47789 38160 ft 429 kts 314°
2026-04-22 11:30 44.80268 16.41626 38160 ft 429 kts 314°
2026-04-22 11:30 44.84628 16.35439 38162 ft 429 kts 314°
2026-04-22 11:31 44.88881 16.29365 38162 ft 429 kts 313°
2026-04-22 11:31 44.93124 16.23296 38161 ft 430 kts 313°
2026-04-22 11:32 44.97311 16.17306 38163 ft 430 kts 313°
2026-04-22 11:32 45.01610 16.11146 38170 ft 431 kts 313°
2026-04-22 11:33 45.05976 16.04880 38174 ft 431 kts 313°
2026-04-22 11:33 45.10330 15.98615 38180 ft 431 kts 313°
2026-04-22 11:34 45.14689 15.92370 38182 ft 430 kts 314°
2026-04-22 11:34 45.19052 15.86091 38184 ft 430 kts 314°
2026-04-22 11:35 45.23397 15.79805 38185 ft 431 kts 314°
2026-04-22 11:35 45.27723 15.73525 38187 ft 431 kts 314°
2026-04-22 11:36 45.32084 15.67177 38188 ft 431 kts 314°
2026-04-22 11:36 45.36414 15.60857 38189 ft 431 kts 314°
2026-04-22 11:37 45.40715 15.54565 38188 ft 432 kts 314°
2026-04-22 11:37 45.45015 15.48255 38187 ft 432 kts 314°
2026-04-22 11:38 45.49353 15.41870 38185 ft 432 kts 314°
2026-04-22 11:38 45.55831 15.32301 38183 ft 432 kts 313°
2026-04-22 11:39 45.60016 15.25760 38181 ft 431 kts 310°
2026-04-22 11:39 45.64121 15.19081 38181 ft 431 kts 310°
2026-04-22 11:40 45.68201 15.12420 38180 ft 431 kts 310°
2026-04-22 11:40 45.72276 15.05752 38181 ft 430 kts 310°
2026-04-22 11:41 45.76360 14.99057 38181 ft 430 kts 310°
2026-04-22 11:41 45.80422 14.92380 38182 ft 430 kts 310°
2026-04-22 11:42 45.84473 14.85705 38182 ft 430 kts 311°
2026-04-22 11:42 45.88516 14.79028 38180 ft 429 kts 311°
2026-04-22 11:43 45.92572 14.72315 38178 ft 429 kts 311°
2026-04-22 11:43 45.96609 14.65615 38177 ft 429 kts 311°
2026-04-22 11:44 46.00643 14.58904 38174 ft 429 kts 311°
2026-04-22 11:44 46.04702 14.52133 38173 ft 431 kts 311°
2026-04-22 11:45 46.08748 14.45372 38171 ft 431 kts 311°
2026-04-22 11:45 46.12790 14.38626 38172 ft 431 kts 311°
2026-04-22 11:46 46.16831 14.31870 38171 ft 430 kts 310°
2026-04-22 11:46 46.20861 14.25072 38171 ft 430 kts 310°
2026-04-22 11:47 46.24876 14.18285 38171 ft 430 kts 310°
2026-04-22 11:47 46.28891 14.11487 38172 ft 431 kts 310°
2026-04-22 11:48 46.32918 14.04650 38176 ft 431 kts 310°
2026-04-22 11:48 46.36932 13.97820 38178 ft 431 kts 310°
2026-04-22 11:49 46.40931 13.90997 38180 ft 431 kts 310°
2026-04-22 11:49 46.44937 13.84139 38180 ft 432 kts 310°
2026-04-22 11:50 46.48950 13.77249 38182 ft 432 kts 310°
2026-04-22 11:50 46.52948 13.70396 38182 ft 432 kts 311°
2026-04-22 11:51 46.57080 13.63667 38183 ft 432 kts 312°
2026-04-22 11:51 46.61221 13.56946 38183 ft 432 kts 312°
2026-04-22 11:52 46.65356 13.50189 38184 ft 433 kts 312°
2026-04-22 11:52 46.69469 13.43437 38188 ft 433 kts 312°
2026-04-22 11:53 46.73572 13.36680 38181 ft 434 kts 312°
2026-04-22 11:53 46.77705 13.29836 38178 ft 433 kts 311°
2026-04-22 11:54 46.81804 13.23025 38179 ft 435 kts 312°
2026-04-22 11:54 46.85909 13.16201 38180 ft 435 kts 312°
2026-04-22 11:55 46.90037 13.09329 38181 ft 435 kts 312°
2026-04-22 11:55 46.94143 13.02476 38178 ft 435 kts 312°
2026-04-22 11:56 46.98254 12.95600 38178 ft 436 kts 312°
2026-04-22 11:56 47.02359 12.88715 38178 ft 435 kts 312°
2026-04-22 11:57 47.06280 12.82123 38178 ft 435 kts 312°
2026-04-22 11:57 47.10127 12.75640 38175 ft 436 kts 312°
2026-04-22 11:58 47.13903 12.69305 38181 ft 437 kts 312°
2026-04-22 11:58 47.17960 12.62468 38182 ft 436 kts 312°
2026-04-22 11:59 47.22023 12.55582 38183 ft 436 kts 312°
2026-04-22 11:59 47.26114 12.48620 38186 ft 436 kts 312°
2026-04-22 12:00 47.30197 12.41649 38190 ft 435 kts 312°
2026-04-22 12:00 47.34215 12.34772 38195 ft 436 kts 311°
2026-04-22 12:01 47.38276 12.27775 38200 ft 437 kts 311°
2026-04-22 12:01 47.42344 12.20757 38205 ft 437 kts 311°
2026-04-22 12:02 47.46434 12.13692 38209 ft 438 kts 311°
2026-04-22 12:02 47.50513 12.06629 38212 ft 438 kts 312°
2026-04-22 12:03 47.54581 11.99585 38214 ft 439 kts 312°
2026-04-22 12:03 47.58704 11.92568 38215 ft 439 kts 313°
2026-04-22 12:04 47.62848 11.85498 38216 ft 439 kts 312°
2026-04-22 12:04 47.66965 11.78440 38219 ft 439 kts 312°
2026-04-22 12:05 47.71080 11.71360 38223 ft 439 kts 312°
2026-04-22 12:05 47.75190 11.64270 38228 ft 439 kts 312°
2026-04-22 12:06 47.79181 11.57364 38234 ft 439 kts 312°
2026-04-22 12:06 47.83177 11.50430 38238 ft 437 kts 312°
2026-04-22 12:07 47.87161 11.43502 38242 ft 437 kts 312°
2026-04-22 12:07 47.91124 11.36591 38244 ft 437 kts 312°
2026-04-22 12:08 47.95174 11.29488 38247 ft 436 kts 311°
2026-04-22 12:08 47.99137 11.22516 38249 ft 436 kts 311°
2026-04-22 12:09 48.03081 11.15567 38248 ft 439 kts 312°
2026-04-22 12:09 48.07013 11.08638 38250 ft 440 kts 312°
2026-04-22 12:10 48.10995 11.01607 38251 ft 440 kts 312°
2026-04-22 12:10 48.15068 10.94443 38250 ft 439 kts 312°
2026-04-22 12:11 48.19108 10.87296 38251 ft 439 kts 311°
2026-04-22 12:11 48.23165 10.80082 38252 ft 438 kts 311°
2026-04-22 12:12 48.27205 10.72861 38254 ft 438 kts 312°
2026-04-22 12:12 48.31234 10.65646 38258 ft 439 kts 312°
2026-04-22 12:13 48.35255 10.58430 38261 ft 439 kts 312°
2026-04-22 12:13 48.39258 10.51224 38262 ft 439 kts 312°
2026-04-22 12:14 48.43263 10.43993 38262 ft 439 kts 312°
2026-04-22 12:14 48.47201 10.36861 38264 ft 438 kts 312°
2026-04-22 12:15 48.51104 10.29755 38264 ft 438 kts 311°
2026-04-22 12:15 48.54955 10.22721 38261 ft 438 kts 311°
2026-04-22 12:16 48.58883 10.15541 38253 ft 439 kts 311°
2026-04-22 12:16 48.62785 10.08393 38249 ft 439 kts 311°
2026-04-22 12:17 48.66792 10.01027 38249 ft 439 kts 311°
2026-04-22 12:17 48.70802 9.93646 38093 ft 440 kts 311°
2026-04-22 12:18 48.72880 9.90017 37831 ft 436 kts 314°
2026-04-22 12:18 48.75020 9.86575 37573 ft 432 kts 315°
2026-04-22 12:18 48.77163 9.83187 37314 ft 429 kts 315°
2026-04-22 12:18 48.79309 9.79802 37051 ft 426 kts 315°
2026-04-22 12:19 48.81423 9.76460 36793 ft 425 kts 315°
2026-04-22 12:19 48.83541 9.73105 36534 ft 425 kts 315°
2026-04-22 12:19 48.85652 9.69754 36276 ft 425 kts 315°
2026-04-22 12:19 48.87776 9.66378 36016 ft 424 kts 315°
2026-04-22 12:20 48.89889 9.63012 35756 ft 424 kts 315°
2026-04-22 12:20 48.91980 9.59676 35498 ft 425 kts 315°
2026-04-22 12:20 48.94104 9.56285 35237 ft 425 kts 315°
2026-04-22 12:20 48.96210 9.52917 34978 ft 425 kts 315°
2026-04-22 12:21 48.98329 9.49523 34718 ft 425 kts 315°
2026-04-22 12:21 49.00433 9.46147 34458 ft 425 kts 315°
2026-04-22 12:21 49.02574 9.42710 34289 ft 432 kts 315°
2026-04-22 12:21 49.04724 9.39252 34277 ft 435 kts 315°
2026-04-22 12:22 49.09015 9.32327 34274 ft 437 kts 314°
2026-04-22 12:22 49.13320 9.25367 34274 ft 437 kts 314°
2026-04-22 12:23 49.17644 9.18381 34276 ft 437 kts 314°
2026-04-22 12:23 49.21934 9.11413 34275 ft 437 kts 314°
2026-04-22 12:24 49.26216 9.04426 34277 ft 437 kts 314°
2026-04-22 12:24 49.30509 8.97402 34280 ft 437 kts 314°
2026-04-22 12:25 49.34919 8.90532 34283 ft 437 kts 320°
2026-04-22 12:25 49.39915 8.84766 34288 ft 436 kts 328°
2026-04-22 12:26 49.45440 8.80358 34294 ft 436 kts 338°
2026-04-22 12:26 49.51378 8.77297 34299 ft 436 kts 343°
2026-04-22 12:27 49.57386 8.74664 34303 ft 436 kts 344°
2026-04-22 12:27 49.63371 8.72046 34305 ft 436 kts 344°
2026-04-22 12:28 49.69380 8.69403 34306 ft 436 kts 344°
2026-04-22 12:28 49.75390 8.66750 34306 ft 436 kts 344°
2026-04-22 12:29 49.81393 8.64090 34307 ft 436 kts 344°
2026-04-22 12:29 49.87380 8.61428 34307 ft 436 kts 344°
2026-04-22 12:30 49.96386 8.57405 34307 ft 436 kts 344°
2026-04-22 12:31 50.02284 8.54760 34288 ft 435 kts 345°
2026-04-22 12:31 50.05151 8.53448 34037 ft 432 kts 343°
2026-04-22 12:31 50.08051 8.51963 33421 ft 430 kts 342°
2026-04-22 12:31 50.10955 8.50406 32691 ft 430 kts 342°
2026-04-22 12:32 50.13887 8.48821 31904 ft 431 kts 342°
2026-04-22 12:32 50.19754 8.45641 30043 ft 431 kts 342°
2026-04-22 12:32 50.22658 8.44066 28447 ft 434 kts 343°
2026-04-22 12:33 50.25641 8.42409 26614 ft 454 kts 341°
2026-04-22 12:33 50.28666 8.40392 25458 ft 457 kts 338°
2026-04-22 12:33 50.31523 8.38092 24542 ft 441 kts 334°
2026-04-22 12:33 50.34271 8.35510 23407 ft 446 kts 331°
2026-04-22 12:34 50.36966 8.32822 22778 ft 436 kts 330°
2026-04-22 12:34 50.39554 8.30185 21901 ft 425 kts 329°
2026-04-22 12:34 50.42114 8.27581 21214 ft 423 kts 330°
2026-04-22 12:34 50.44680 8.25009 20606 ft 419 kts 330°
2026-04-22 12:35 50.47210 8.22480 20011 ft 416 kts 330°
2026-04-22 12:35 50.49718 8.19967 19422 ft 412 kts 330°
2026-04-22 12:35 50.52227 8.17445 18832 ft 408 kts 330°
2026-04-22 12:35 50.54692 8.14964 18247 ft 404 kts 331°
2026-04-22 12:36 50.57133 8.12503 17665 ft 401 kts 331°
2026-04-22 12:36 50.59554 8.10061 17082 ft 398 kts 330°
2026-04-22 12:36 50.61953 8.07636 16501 ft 395 kts 330°
2026-04-22 12:36 50.64334 8.05225 15923 ft 392 kts 330°
2026-04-22 12:37 50.66694 8.02828 15343 ft 389 kts 330°
2026-04-22 12:37 50.69062 8.00420 14761 ft 387 kts 330°
2026-04-22 12:37 50.71396 7.98043 14180 ft 385 kts 330°
2026-04-22 12:37 50.73675 7.95597 13602 ft 385 kts 325°
2026-04-22 12:38 50.75720 7.92638 13027 ft 386 kts 316°
2026-04-22 12:38 50.77439 7.89181 12453 ft 387 kts 307°
2026-04-22 12:38 50.78951 7.85517 11882 ft 385 kts 305°
2026-04-22 12:38 50.80429 7.81791 11314 ft 383 kts 304°
2026-04-22 12:39 50.81888 7.78127 11063 ft 369 kts 305°
2026-04-22 12:39 50.84636 7.71296 10722 ft 341 kts 305°
2026-04-22 12:39 50.85936 7.68080 10586 ft 328 kts 306°
2026-04-22 12:40 50.87180 7.65002 10481 ft 314 kts 305°
2026-04-22 12:40 50.88371 7.62049 10396 ft 300 kts 306°
2026-04-22 12:40 50.89510 7.59221 10328 ft 291 kts 306°
2026-04-22 12:40 50.90662 7.56362 10338 ft 297 kts 306°
2026-04-22 12:41 50.92181 7.52587 9925 ft 296 kts 306°
2026-04-22 12:41 50.92949 7.50677 9613 ft 297 kts 305°
2026-04-22 12:41 50.94098 7.47820 9208 ft 296 kts 305°
2026-04-22 12:41 50.95239 7.44978 8822 ft 295 kts 305°
2026-04-22 12:42 50.96379 7.42129 8431 ft 294 kts 305°
2026-04-22 12:42 50.97508 7.39304 8058 ft 292 kts 305°
2026-04-22 12:42 50.98640 7.36466 7691 ft 289 kts 305°
2026-04-22 12:42 50.99754 7.33671 7306 ft 288 kts 304°
2026-04-22 12:43 51.00852 7.30900 6924 ft 286 kts 304°
2026-04-22 12:43 51.01947 7.28138 6552 ft 284 kts 304°
2026-04-22 12:43 51.03020 7.25438 6201 ft 282 kts 304°
2026-04-22 12:43 51.04097 7.22724 6022 ft 280 kts 304°
2026-04-22 12:44 51.05169 7.20022 5776 ft 279 kts 304°
2026-04-22 12:44 51.06167 7.17503 5509 ft 278 kts 304°
2026-04-22 12:44 51.07217 7.14827 5201 ft 276 kts 301°
2026-04-22 12:44 51.07849 7.11913 4932 ft 273 kts 277°
2026-04-22 12:45 51.07859 7.08861 4693 ft 268 kts 267°
2026-04-22 12:45 51.07718 7.05876 4458 ft 262 kts 265°
2026-04-22 12:45 51.07571 7.02970 4226 ft 257 kts 266°
2026-04-22 12:45 51.07442 7.00095 4022 ft 250 kts 267°
2026-04-22 12:46 51.07162 6.97307 3712 ft 249 kts 245°
2026-04-22 12:46 51.06177 6.95045 3458 ft 243 kts 226°
2026-04-22 12:46 51.05006 6.93091 3099 ft 233 kts 220°
2026-04-22 12:46 51.03648 6.91926 2983 ft 205 kts 183°
2026-04-22 12:47 51.02331 6.92245 3070 ft 185 kts 149°
2026-04-22 12:47 51.01306 6.93406 3035 ft 181 kts 134°
2026-04-22 12:47 51.00389 6.94834 3012 ft 180 kts 131°
2026-04-22 12:47 50.99479 6.96278 3002 ft 180 kts 132°
2026-04-22 12:48 50.98558 6.97682 2971 ft 181 kts 133°
2026-04-22 12:48 50.97640 6.99036 2774 ft 181 kts 134°
2026-04-22 12:48 50.96708 7.00386 2528 ft 180 kts 134°
2026-04-22 12:48 50.95785 7.01715 2289 ft 180 kts 134°
2026-04-22 12:49 50.94863 7.03042 2049 ft 178 kts 135°
2026-04-22 12:49 50.93966 7.04335 1813 ft 173 kts 134°
2026-04-22 12:49 50.93101 7.05584 1606 ft 158 kts 136°
2026-04-22 12:49 50.92322 7.06708 1379 ft 144 kts 135°
2026-04-22 12:50 50.91618 7.07727 1183 ft 136 kts 135°
2026-04-22 12:50 50.90923 7.08739 1022 ft 137 kts 135°
2026-04-22 12:50 50.90218 7.09752 845 ft 136 kts 135°
2026-04-22 12:50 50.89515 7.10774 659 ft 137 kts 135°
2026-04-22 12:51 50.88814 7.11787 473 ft 135 kts 135°
2026-04-22 12:51 50.88116 7.12806 298 ft 136 kts 135°
2026-04-22 12:51 50.87450 7.13770 244 ft 111 kts 135°
2026-04-22 12:51 50.87014 7.14405 256 ft 61 kts 138°
2026-04-22 12:52 50.86830 7.14670 266 ft 22 kts 136°
2026-04-22 12:52 50.86741 7.14739 269 ft 12 kts 204°
2026-04-22 12:52 50.86691 7.14620 267 ft 15 kts 245°
2026-04-22 12:52 50.86660 7.14462 264 ft 15 kts 293°
2026-04-22 12:53 50.86729 7.14358 261 ft 15 kts 317°
2026-04-22 12:53 50.86812 7.14238 257 ft 18 kts 317°
2026-04-22 12:53 50.86912 7.14090 251 ft 21 kts 317°
2026-04-22 12:53 50.87027 7.13924 246 ft 23 kts 315°
2026-04-22 12:54 50.87148 7.13742 242 ft 25 kts 318°
2026-04-22 12:54 50.87282 7.13554 237 ft 26 kts 318°
2026-04-22 12:54 50.87421 7.13355 232 ft 27 kts 317°
2026-04-22 12:54 50.87559 7.13152 232 ft 26 kts 317°
2026-04-22 12:55 50.87691 7.12963 232 ft 25 kts 318°
2026-04-22 12:55 50.87785 7.12817 231 ft 11 kts 298°
2026-04-22 12:55 50.87772 7.12677 229 ft 14 kts 251°
2026-04-22 12:55 50.87765 7.12531 229 ft 13 kts 287°
2026-04-22 12:56 50.87787 7.12426 228 ft 3 kts 288°
2026-04-22 12:56 50.87787 7.12424 228 ft 0 kts 288°